Location: Unspecified
(0.0000°N, 0.0000°E)
Time: 08:56:01
(UTC+00:00)

Vanguard 2 Rocket - Pass Details

Date: 15 December 2018
Orbit: 556 x 3325 km, 32.9° (Epoch: 22 March)

Event Time Altitude Azimuth Distance (km) Brightness Sun altitude
Rises 13:27:08 0° 310° (NW) 4,349 10.4 57.7°
Reaches altitude 10° 13:29:32 10° 311° (NW) 3,653 10.1 57.3°
Maximum altitude 13:39:40 78° 37° (NE) 2,241 9.7 55.6°
Drops below altitude 10° 13:57:23 10° 122° (ESE) 6,000 11.1 52.3°
Sets 14:02:34 0° 123° (ESE) 7,210 11.4 51.3°
